Location: Newark
(42.5998°N, 13.2232°E)
Time: 02:31:04
(UTC+00:00)

ISS - Visible Passes

Search period start: 29 January 2020 00:00
Search period end: 08 February 2020 00:00
Orbit: 415 x 423 km, 51.6° (Epoch: 29 January)

Date Brightness Start Highest point End Pass type
(mag) Time Alt. Az. Time Alt. Az. Time Alt. Az.
29 Jan -1.3 18:19:44 10° NW 18:21:02 16° NNW 18:21:02 16° NNW visible
30 Jan -1.8 17:32:02 10° NW 17:34:25 17° N 17:35:25 16° NNE visible
31 Jan -1.7 16:44:13 10° NW 16:46:36 18° N 16:48:59 10° NE visible
31 Jan -1.5 18:21:23 10° NW 18:22:48 19° NNW 18:22:48 19° NNW visible
01 Feb -2.1 17:33:48 10° NW 17:36:28 21° NNE 17:37:15 19° NNE visible
02 Feb -2.1 18:22:49 10° NW 18:24:43 28° NNW 18:24:43 28° NNW visible
03 Feb -2.8 17:35:17 10° NW 17:38:22 32° NNE 17:39:17 27° NE visible
03 Feb -0.3 19:12:01 10° WNW 19:12:16 12° WNW 19:12:16 12° WNW visible
04 Feb -2.4 16:47:44 10° NW 16:50:36 25° NNE 16:53:27 10° ENE visible
04 Feb -2.9 18:24:18 10° WNW 18:26:56 50° WNW 18:26:56 50° WNW visible
05 Feb -3.8 17:36:41 10° NW 17:40:03 67° NNE 17:41:44 27° ESE visible
05 Feb -0.3 19:14:21 10° W 19:14:44 12° W 19:14:44 12° W visible
06 Feb -1.9 18:26:09 10° WNW 18:29:01 26° SW 18:29:43 24° SSW visible
07 Feb -2.7 17:38:14 10° WNW 17:41:30 44° SW 17:44:43 10° SSE visible
